Location: Sobotiste
(48.7170°N, 17.4000°E)
Time: 17:38:54
(UTC+02:00)

MOZHAYETS 4 - Pass Details

Date: 21 March 2026
Orbit: 642 x 659 km, 98.3° (Epoch: 15 April)

Event Time Altitude Azimuth Distance (km) Brightness Sun altitude
Rises 03:59:50 0° 143° (SE) 2,978 11.2 -18.8°
Reaches altitude 10° 04:02:09 10° 136° (SE) 2,070 10.5 -18.4°
Maximum altitude 04:06:20 39° 68° (ENE) 985 9.2 -17.8°
Drops below altitude 10° 04:10:33 10° 359° (N) 2,077 10.5 -17.1°
Sets 04:12:52 0° 352° (N) 2,990 11.2 -16.8°
